Montana Department of Transportation

Main Content

Accidents and Incidents Report

Hourly Weather Roundup

ASUS45 KTFX 262219
RWRMT 
MONTANA HOURLY WEATHER ROUNDUP
NATIONAL WEATHER SERVICE GREAT FALLS MT
419 PM MDT THU MAR 26 2015

NOTE: "FAIR" INDICATES FEW OR NO CLOUDS BELOW 12000 FEET WITH NO
SIGNIFICANT WEATHER AND/OR OBSTRUCTIONS TO VISIBILITY.

* THESE STATIONS ARE NOT UNDER NWS QUALITY CONTROL. THEY DO NOT
   REPORT WEATHER SUCH AS PRECIPITATION OR FOG.

MTZ001.007-043-262300-
WEST OF THE DIVIDE
CITY           SKY/WX    TMP DP  RH WIND       PRES   REMARKS
KALISPELL      CLOUDY    46  43  89 N5        30.27S 
MISSOULA       CLOUDY    54  39  57 E6        30.31F 
BUTTE          CLOUDY    54  34  47 NW17G24   30.28S 
MULLAN PASS    PTSUNNY   39  39 100 SW8       30.32S WCI  33 
* ESSEX        N/A       48  40  74 N6         N/A   
* EUREKA APT   PTCLDY    57  43  60 SE14      30.22F 
* HAMILTON APT PTCLDY    57  37  47 NE5       30.32F 
* LIBBY APT    PTCLDY    61  39  44 NE3       30.24S 
* LINCOLN      N/A       49  38  66 W7G15      N/A   
* LOOKOUT PASS N/A       51  42  71 E8G14      N/A   
* POLSON       N/A       54  42  64 S2G7       N/A   
* RONAN APT    SUNNY     55  43  64 SE7        N/A   
* SEELEY LAKE  N/A       49  40  71 N4G10      N/A   
* THOMP F APT  PTCLDY    48  27  44 S6G13      N/A   
* YAAK HILL    N/A       57  37  47 SW2G14     N/A   
--------------------------------

MTZ008-052.055-262300-
SOUTHWEST MONTANA
CITY           SKY/WX    TMP DP  RH WIND       PRES   REMARKS
BOZEMAN        CLOUDY    59  34  39 NW17G25   30.21F 
DILLON         CLOUDY    61  32  34 N13       30.25F 
* W YELLOWSTON PTSUNNY   43  31  63 SW6G15     N/A   
* THREE FORKS  PTCLDY    61  36  39 W14G20     N/A   
* TWIN BRIDGES PTSUNNY   59  30  33 W8         N/A   
* BOULDER HILL N/A       51  30  45 S4G14      N/A   
* HOMESTAKE PS N/A       49  34  56 NW11G26    N/A   
* MONIDA PASS  N/A       48  29  48 SE12G18    N/A   
* RAYNOLDS PAS N/A       41   1  18 SE17G24    N/A   
* WHITEHALL    N/A       60  35  39 NW12G20    N/A   
* WISE RIVER   N/A       57  35  44 W20G29     N/A   
--------------------------------

MTZ009.010-012-014-046-048-049-054-262300-
EAST SLOPES AND CENTRAL MONTANA
CITY           SKY/WX    TMP DP  RH WIND       PRES   REMARKS
CUT BANK       PTSUNNY   63  34  34 W28G36    30.05R 
GREAT FALLS    PTCLDY    64  34  33 W26G32    30.06S 
HELENA         PTCLDY    61  37  41 W15G30    30.20F 
MALMSTROM AFB  PTSUNNY   66  36  33 W28G36    30.07S 
* CONRAD       PTSUNNY   63  37  38 W21G28     N/A   
* DEARBORN     N/A       61  37  41 S22G33     N/A   
* EAST GLACIER N/A       49  36  61 W27G38     N/A   
* MONARCH      N/A       54  27  35 W28G40     N/A   
* PENDROY      N/A       62  31  31 NW25G32    N/A   
* ROGERS PASS  N/A       44  36  74 E21G42     N/A   
* WHITE SULPH  N/A       58  37  46 W8G19      N/A   
--------------------------------

MTZ011-013-016-021-035-040-045-047-050-051-262300-
NORTH CENTRAL MONTANA
CITY           SKY/WX    TMP DP  RH WIND       PRES   REMARKS
HAVRE          CLOUDY    64  36  35 NW9       30.00F 
LEWISTOWN      CLOUDY    61  34  36 W25G33    30.06S 
* CHINOOK      PTSUNNY   63  34  34 W8        29.99F 
* FORT BENTON  PTSUNNY   68  36  31 W23       30.02F 
* MALTA APT    CLOUDY    57  32  39 N/A        N/A   
* CHESTER      N/A       63  33  33 NW19G31    N/A   
* DENTON       N/A       61  32  34 W18G29     N/A   
* GEYSER       N/A       59  31  35 W22G37     N/A   
* JUDITH GAP   N/A       58  32  37 NW12G20    N/A   
* LOMA         N/A       66  34  31 W23G30     N/A   
--------------------------------

MTZ017.020-022.027-061-062-262300-
NORTHEAST MONTANA
CITY           SKY/WX    TMP DP  RH WIND       PRES   REMARKS
GLASGOW        CLOUDY    52  30  43 SE14      30.07F 
GLENDIVE       CLOUDY    48  28  46 E8        30.12F 
JORDAN         CLOUDY    61  30  31 VRB7      30.04F 
SIDNEY         CLOUDY    45  34  65 E5        30.15F 
WOLF POINT     CLOUDY    48  36  63 E13       30.11F 
* BEAVER HILL  N/A       44  32  63 E8G13N/A   
* CIRCLE       N/A       53  29  40 NE1        N/A   
* LINDSAY DVD  N/A       48  29  48 E6G13      N/A   
* NAVAJO       N/A       38  32  79 SE8        N/A   WCI  32 
* PLENTYWOOD A PTSUNNY   43  30  60 S8        30.15S 
* POPLAR APT   CLOUDY    45  36  71 E9        30.13F 
* SACO         N/A       53  29  40 SE8        N/A   
--------------------------------

MTZ028.042-056.058-262300-
SOUTHCENTRAL AND SOUTHEAST MONTANA
CITY           SKY/WX    TMP DP  RH WIND       PRES   REMARKS
BAKER          PTSUNNY   48  28  46 VRB3      30.11F 
BILLINGS       CLOUDY    63  34  34 NW22G31   30.07F 
LIVINGSTON     CLOUDY    63  34  34 W25G35    30.16F 
MILES CITY     CLOUDY    55  30  39 W7        30.06F 
* BIG TIMBER A PTSUNNY   57  34  42 W31G39    30.11F 
* FORSYTH APT  CLOUDY    57  34  42 W3        30.06F 
* LAUREL APT   CLOUDY    61  34  36 N/A        N/A   
* ROUNDUP APT  CLOUDY    61  30  31 N/A        N/A   
* ALZADA       N/A       49  28  44 W10        N/A   
* HYSHAM       N/A       58  29  33 N2G7       N/A   
* LAME DEER    N/A       52  33  48 NW8G13     N/A   
* REED POINT   N/A       62  33  34 W33G43     N/A   
* ROSCOE HILL  N/A       58  19  22 W12G26     N/A   
--------------------------------

REGIONAL REPORTS...DAKOTAS
CITY           SKY/WX    TMP DP  RH WIND       PRES   REMARKS
WILLISTON      PTSUNNY   45  25  45 S6        30.16F 
DICKINSON      CLOUDY    37  30  76 SE8       30.15S WCI  31 
BEACH          PTCLDY    45  32  60 E3        30.14S 
CROSBY         PTSUNNY   41  25  53 E8        30.19S 
TIOGA          PTSUNNY   39  23  53 SE5       30.20F WCI  35 
WATFORD CITY   CLOUDY    41  27  58 SE5       30.15S 
BISMARCK       PTSUNNY   39  21  48 VRB5      30.22S WCI  35 
GRAND FORKS    CLOUDY    32  16  52 N17       30.28S WCI  21 
FARGO          SUNNY     36   9  32 N22G32    30.24R WCI  25 
BUFFALO SD     CLOUDY    46  30  54 E12       30.06S 
RAPID CITY     CLOUDY    48  28  46 N13       30.11S 
--------------------------------

REGIONAL REPORTS...WYOMING/IDAHO/WASHINGTON
CITY           SKY/WX    TMP DP  RH WIND       PRES   REMARKS
GILLETTE       CLOUDY    52  34  50 NW12      30.10F 
SHERIDAN       PTSUNNY   57  34  42 NW17G26   30.09F 
CODY           CLOUDY    61  28  29 W15G29    30.14S 
YELLOWSTONE LA CLOUDY    39  28  65 NW7       30.35S WCI  34 
SALMON         CLOUDY   N/A N/A N/A N7        30.28F 
MULLAN PASS    PTSUNNY   39  39 100 SW8       30.32S WCI  33 
SAND POINT     PTSUNNY   54  46  74 SE8       30.28F 
SPOKANE        PTSUNNY   61  46  58 SW6       30.27F 
--------------------------------

REGIONAL REPORTS...ALBERTA
CITY           SKY/WX    TMP DP  RH WIND       PRES   REMARKS
CALGARY        PTSUNNY   64  30  28 W18G31    29.96S 
LETHBRIDGE     CLOUDY    59  37  44 W33G45    30.01S 
MEDICINE HAT   CLOUDY    66  32  28 NW13      29.96F 
EDMONTON       PTSUNNY   46  34  63 S6        29.96F 
WATERTON GATE  N/A       50  36  59 SW28G41    N/A   
CARDSTON       N/A       54  39  57 W20G29     N/A   
MILK RIVER     N/A       59  36  42 W28G36     N/A   
--------------------------------

REGIONAL REPORTS...SASKATCHEWAN
CITY           SKY/WX    TMP DP  RH WIND       PRES   REMARKS
SWIFT CURRENT  CLOUDY    50  30  46 SE10      30.02F 
MOOSE JAW      PTSUNNY   43  36  76 S8        30.13F 
REGINA         PTSUNNY   37  28  70 SE13G20   30.16F WCI  29 
VAL MARIE      N/A       54  28  37 S9         N/A   
ASSINIBOIA     N/A       43  34  71 SE10       N/A   
CORONACH       N/A       39  32  76 SE9        N/A   WCI  33 

--------------------------------